This is the latest recevied weather packets stored in our database for station/object N4LLZ-13. If no packets are shown the sender has not sent any weather packets the latest 10 day(s).
| Time | Temp. | Humidity | Pressure | Rain* | Wind** | Luminosity | Snow |
|---|---|---|---|---|---|---|---|
| 1788034832 | 25° C | 90% | 1021.4 hPa | 1.27 mm | - | - | - |
| 1788034532 | 25° C | 91% | 1021.5 hPa | 1.27 mm | - | - | - |
| 1788034231 | 24.44° C | 91% | 1021.5 hPa | 1.27 mm | - | - | - |
| 1788033930 | 24.44° C | 92% | 1021.5 hPa | 1.27 mm | - | - | - |
| 1788033629 | 24.44° C | 92% | 1021.5 hPa | 14.73 mm | - | - | - |
| 1788033328 | 24.44° C | 92% | 1021.5 hPa | 24.89 mm | - | - | - |
| 1788033027 | 24.44° C | 93% | 1021.4 hPa | 28.45 mm | - | - | - |
| 1788032726 | 24.44° C | 92% | 1021.4 hPa | 28.96 mm | - | - | - |
| 1788032426 | 24.44° C | 92% | 1021.4 hPa | 29.46 mm | - | - | - |
| 1788032125 | 24.44° C | 92% | 1021.4 hPa | 32 mm | - | - | - |
| 1788031824 | 24.44° C | 92% | 1021.4 hPa | 35.56 mm | - | - | - |
| 1788031523 | 24.44° C | 92% | 1021.5 hPa | 33.02 mm | - | - | - |
| 1788031222 | 24.44° C | 92% | 1021.5 hPa | 35.31 mm | - | - | - |
| 1788030921 | 24.44° C | 92% | 1021.6 hPa | 32 mm | - | - | - |
| 1788030621 | 24.44° C | 93% | 1021.7 hPa | 35.56 mm | - | - | - |
| 1788030320 | 23.89° C | 94% | 1021.6 hPa | 40.13 mm | - | - | - |
| 1788030019 | 23.89° C | 94% | 1021.7 hPa | 9.4 mm | - | - | - |
| 1788029718 | 23.89° C | 94% | 1021.9 hPa | 12.7 mm | - | - | - |
| 1788029417 | 23.89° C | 95% | 1022 hPa | 50.55 mm | - | - | - |
| 1788029116 | 23.33° C | 95% | 1022 hPa | 61.47 mm | - | - | - |
| 1788028816 | 23.33° C | 95% | 1022 hPa | 68.83 mm | - | - | - |
| 1788028515 | 23.33° C | 95% | 1022.2 hPa | 67.06 mm | - | - | - |
| 1788028214 | 23.33° C | 95% | 1022.3 hPa | 61.72 mm | - | - | - |
| 1788027913 | 23.33° C | 95% | 1022.4 hPa | 59.44 mm | - | - | - |
| 1788027612 | 23.33° C | 95% | 1022.4 hPa | 62.48 mm | - | - | - |
* Rain latest hour (hover to see other rain measurements)
** Current wind speed in m/s (hover to see current wind gust speed)